Creston, IA

10:17 PM CST on February 27, 2017 (GMT -0600)
Creston Municipal

Weather History for KCSQ - August, 2013

Change the Weather History Date:

Thursday, August 22, 2013

  Actual Average Record
Temperature  
Mean Temperature 75 °F -  
Max Temperature 82 °F 84 °F 96 °F (1975)
Min Temperature 68 °F 61 °F 46 °F (1951)
Cooling Degree Days 10    
Growing Degree Days 25 (Base 50)    
Moisture  
Dew Point 68 °F    
Average Humidity 87    
Maximum Humidity 100    
Minimum Humidity 62    
Precipitation  
Precipitation 0.00 in - - ()
Sea Level Pressure  
Sea Level Pressure 30.08 in    
Wind  
Wind Speed 7 mph (SSE)    
Max Wind Speed 10 mph    
Max Gust Speed 16 mph    
Visibility 9 miles    
Events      
Averages and records for this station are not official NWS values.
T = Trace of Precipitation, MM = Missing Value Source: NWS Daily Summary

Daily Weather History Graph

Daily Weather History Graph

Search for Another Location

Airport or City:

Trip Planner

Search our weather history database for the weather conditions in past years. The results will help you decide how hot, cold, wet, or windy it might be!

Date:

Astronomy

Aug. 22, 2013 Rise Set
Actual Time 6:34 AM CDT 8:05 PM CDT
Civil Twilight 6:05 AM CDT 8:34 PM CDT
Nautical Twilight 5:30 AM CDT 9:08 PM CDT
Astronomical Twilight 4:53 AM CDT 9:45 PM CDT
Moon 8:48 PM CDT (8/22) 8:25 AM CDT (8/22)
Length of Visible Light 14h 28m
Length of Day
13h 30m
Waning Gibbous, 96% of the Moon is Illuminated
Aug 22
Waning Gibbous
Aug 28
Last Quarter
Sep 5
New
Sep 12
First Quarter
Sep 19
Full

Hourly Weather History & Observations

Time (CDT) Temp. Heat Index Dew Point Humidity Pressure Visibility Wind Dir Wind Speed Gust Speed Precip Events Conditions
12:15 AM 73.4 °F - 66.2 °F 78% 30.04 in 10.0 mi South 9.2 mph - N/A   Clear
12:35 AM 73.4 °F - 66.2 °F 78% 30.04 in 10.0 mi South 9.2 mph - N/A   Clear
12:55 AM 73.4 °F - 68.0 °F 83% 30.04 in 10.0 mi South 9.2 mph - N/A   Clear
1:15 AM 71.6 °F - 68.0 °F 88% 30.05 in 10.0 mi South 9.2 mph - N/A   Clear
1:35 AM 71.6 °F - 68.0 °F 88% 30.05 in 10.0 mi South 9.2 mph - N/A   Clear
1:55 AM 71.6 °F - 68.0 °F 88% 30.05 in 10.0 mi SSW 9.2 mph - N/A   Clear
2:15 AM 71.6 °F - 68.0 °F 88% 30.06 in 10.0 mi SSW 9.2 mph - N/A   Clear
2:35 AM 71.6 °F - 68.0 °F 88% 30.06 in 10.0 mi SSW 9.2 mph - N/A   Clear
2:55 AM 71.6 °F - 68.0 °F 88% 30.04 in 10.0 mi SSW 9.2 mph - N/A   Clear
3:15 AM 71.6 °F - 68.0 °F 88% 30.04 in 10.0 mi SSW 8.1 mph - N/A   Clear
3:35 AM 73.4 °F - 68.0 °F 83% 30.05 in 10.0 mi SW 9.2 mph - N/A   Clear
3:55 AM 73.4 °F - 68.0 °F 83% 30.07 in 10.0 mi WSW 10.4 mph - N/A   Clear
4:15 AM 71.6 °F - 68.0 °F 88% 30.09 in 10.0 mi West 9.2 mph 16.1 mph N/A   Partly Cloudy
4:35 AM 71.6 °F - 68.0 °F 88% 30.08 in 10.0 mi Variable 5.8 mph - N/A   Clear
4:55 AM 71.6 °F - 68.0 °F 88% 30.07 in 10.0 mi WSW 4.6 mph - N/A   Clear
5:15 AM 71.6 °F - 68.0 °F 88% 30.07 in 10.0 mi WSW 4.6 mph - N/A   Clear
5:35 AM 69.8 °F - 68.0 °F 94% 30.08 in 10.0 mi West 6.9 mph - N/A   Clear
5:55 AM 69.8 °F - 68.0 °F 94% 30.08 in 8.0 mi West 4.6 mph - N/A   Clear
6:15 AM 69.8 °F - 68.0 °F 94% 30.08 in 9.0 mi WNW 4.6 mph - N/A   Clear
6:35 AM 69.8 °F - 68.0 °F 94% 30.09 in 9.0 mi West 3.5 mph - N/A   Clear
6:55 AM 69.8 °F - 68.0 °F 94% 30.09 in 6.0 mi Calm Calm - N/A   Clear
7:15 AM 68.0 °F - 68.0 °F 100% 30.09 in 3.0 mi South 3.5 mph - N/A   Clear
7:35 AM 69.8 °F - 68.0 °F 94% 30.09 in 4.0 mi Calm Calm - N/A   Clear
7:55 AM 69.8 °F - 68.0 °F 94% 30.09 in 6.0 mi Calm Calm - N/A   Clear
8:15 AM 71.6 °F - 69.8 °F 94% 30.09 in 5.0 mi ESE 3.5 mph - N/A   Clear
8:35 AM 71.6 °F - 69.8 °F 94% 30.10 in 4.0 mi Calm Calm - N/A   Clear
8:55 AM 71.6 °F - 69.8 °F 94% 30.11 in 6.0 mi Calm Calm - N/A   Clear
1:15 PM 77.0 °F - 68.0 °F 74% 30.12 in 10.0 mi South 6.9 mph - N/A   Clear
1:35 PM 78.8 °F - 69.8 °F 74% 30.12 in 10.0 mi SE 8.1 mph - N/A   Clear
3:55 PM 80.6 °F 83.2 °F 68.0 °F 65% 30.09 in 10.0 mi ESE 8.1 mph - N/A   Clear
4:15 PM 82.4 °F 85.4 °F 68.0 °F 62% 30.08 in 10.0 mi ESE 8.1 mph - N/A   Clear
7:35 PM 75.2 °F - 68.0 °F 78% 30.07 in 10.0 mi ENE 6.9 mph - N/A   Clear
8:35 PM 71.6 °F - 68.0 °F 88% 30.07 in 10.0 mi ENE 8.1 mph - N/A   Clear
8:55 PM 71.6 °F - 68.0 °F 88% 30.07 in 10.0 mi ENE 8.1 mph - N/A   Clear
9:15 PM 71.6 °F - 68.0 °F 88% 30.08 in 10.0 mi ENE 6.9 mph - N/A   Clear
9:35 PM 69.8 °F - 68.0 °F 94% 30.08 in 10.0 mi ENE 6.9 mph - N/A   Clear
9:55 PM 69.8 °F - 66.2 °F 88% 30.08 in 10.0 mi ENE 6.9 mph - N/A   Clear
10:15 PM 69.8 °F - 66.2 °F 88% 30.09 in 10.0 mi ENE 6.9 mph - N/A   Clear
10:35 PM 69.8 °F - 66.2 °F 88% 30.09 in 10.0 mi ENE 8.1 mph - N/A   Clear
10:55 PM 69.8 °F - 66.2 °F 88% 30.09 in 10.0 mi East 6.9 mph - N/A   Clear
11:15 PM 68.0 °F - 66.2 °F 94% 30.10 in 10.0 mi East 6.9 mph - N/A   Clear
11:35 PM 68.0 °F - 66.2 °F 94% 30.10 in 10.0 mi East 5.8 mph - N/A   Clear
11:55 PM 68.0 °F - 66.2 °F 94% 30.11 in 10.0 mi East 6.9 mph - N/A   Clear